SCP
0 0 0 0 0 0 0 0 0 0 0 0 0 0 0 0 0 0 0 0 0 0 0 0 0 0 0 0 0 0 0 0 0 0 0 0 0 0 0 0 0 0 0
0 0 0 0 0 0 0 0 0 0 0 0 0 0 0 0 0 0 0 0 0 0 0 0 0 0 0 0 0 0 0 0 0 0 0 0 0 0 0 0 0 0 0
0 0 0 0 0 0 0 0 0 0 0 0 0 0 0 0 0 0 0 0 0 0 0 0 0 0 0 0 0 0 0 0 0 0 0 0 0 0 0 0 0 0 0
0 0 0 0 0 0 0 0 0 0 0 0 0 0 0 0 0 0 0 0 0 0 0 0 0 0 0 0 0 0 0 0 0 0 0 0 0 0 0 0 0 0 0
0 0 0 0 0 0 0 0 0 0 0 0 0 0 0 0 0 0 0 0 0 0 0 0 0 0 0 0 0 0 0 0 0 0 0 0 0 0 0 0 0 0 0
0 0 0 0 0 0 0 0 0 0 0 0 0 0 0 0 0 0 0 0 0 0 0 0 0 0 0 0 0 0 0 0 0 0 0 0 0 0 0 0 0 0 0
0 0 0 0 0 0 0 0 0 0 0 0 0 0 0 0 0 0 0 0 0 0 0 0 0 0 0 0 0 0 0 0 0 0 0 0 0 0 0 0 0 0 0
0 0 0 0 0 0 0 0 0 0 0 0 0 0 0 0 0 0 0 0 0 0 0 0 0 0 0 0 0 0 0 0 0 0 0 0 0 0 0 0 0 0 0
0 0 0 0 0 0 0 0 0 0 0 0 0 0 0 0 0 0 0 0 0 0 0 0 0 0 0 0 0 0 0 0 0 0 0 0 0 0 0 0 0 0 0
0 0 0 0 0 0 0 0 0 0 0 0 0 0 0 0 0 0 0 0 0 0 0 0 0 0 0 0 0 0 0 0 0 0 0 0 0 0 0 0 0 0 0
0 0 0 0 0 0 0 0 0 0 0 0 0 0 0 0 0 0 0 0 0 0 0 0 0 0 0 0 0 0 0 0 0 0 0 0 0 0 0 0 0 0 0
0 0 0 0 0 0 0 0 0 0 0 0 0 0 0 0 0 0 0 0 0 0 0 0 0 0 0 0 0 0 0 0 0 0 0 0 0 0 0 0 0 0 0
0 0 0 0 0 0 0 0 0 0 0 0 0 0 0 0 0 0 0 0 0 0 0 0 0 0 0 0 0 0 0 0 0 0 0 0 0 0 0 0 0 0 0
0 0 0 0 0 0 0 0 0 0 0 0 0 0 0 0 0 0 0 0 0 0 0 0 0 0 0 0 0 0 0 0 0 0 0 0 0 0 0 0 0 0 0
0 0 0 0 0 0 0 0 0 0 0 0 0 0 0 0 0 0 0 0 0 0 0 0 0 0 0 0 0 0 0 0 0 0 0 0 0 0 0 0 0 0 0
0 0 0 0 0 0 0 0 0 0 0 0 0 0 0 0 0 0 0 0 0 0 0 0 0 0 0 0 0 0 0 0 0 0 0 0 0 0 0 0 0 0 0
0 0 0 0 0 0 0 0 0 0 0 0 0 0 0 0 0 0 0 0 0 0 0 0 0 0 0 0 0 0 0 0 0 0 0 0 0 0 0 0 0 0 0
0 0 0 0 0 0 0 0 0 0 0 0 0 0 0 0 0 0 0 0 0 0 0 0 0 0 0 0 0 0 0 0 0 0 0 0 0 0 0 0 0 0 0
0 0 0 0 0 0 0 0 0 0 0 0 0 0 0 0 0 0 0 0 0 0 0 0 0 0 0 0 0 0 0 0 0 0 0 0 0 0 0 0 0 0 0
0 0 0 0 0 0 0 0 0 0 0 0 0 0 0 0 0 0 0 0 0 0 0 0 0 0 0 0 0 0 0 0 0 0 0 0 0 0 0 0 0 0 0
0 0 0 0 0 0 0 0 0 0 0 0 0 0 0 0 0 0 0 0 0 0 0 0 0 0 0 0 0 0 0 0 0 0 0 0 0 0 0 0 0 0 0
0 0 0 0 0 0 0 0 0 0 0 0 0 0 0 0 0 0 0 0 0 0 0 0 0 0 0 0 0 0 0 0 0 0 0 0 0 0 0 0 0 0 0
0 0 0 0 0 0 0 0 0 0 0 0 0 0 0 0 0 0 0 0 0 0 0 0 0 0 0 0 0 0 0 0 0 0 0 0 0 0 0 0 0 0 0
0 0 0 0 0 0 0 0 0 0 0 0 0 0 0 0 0 0 0 0 0 0 0 0 0 0 0 0 0 0 0 0 0 0 0 0 0 0 0 0 0 0 0
0 0 0 0 0 0 0 0 0 0 0 0 0 0 0 0 0 0 0 0 0 0 0 0 0 0 0 0 0 0 0 0 0 0 0 0 0 0 0 0 0 0 0
0 0 0 0 0 0 0 0 0 0 0 0 0 0 0 0 0 0 0 0 0 0 0 0 0 0 0 0 0 0 0 0 0 0 0 0 0 0 0 0 0 0 0
Wind_Speed_500mb
54 52 51 51 48 46 43 42 42 44 48 47 47 47 49 47 45 48 45 41 39 40 39 36 38 37 32 25 25 22 23 22 19 18 25 25 20 19 26 29 27 21 23
40 37 38 35 33 34 39 37 36 37 37 39 40 42 45 44 42 44 44 39 37 37 37 37 34 22 21 23 16 20 18 18 19 19 17 18 18 24 26 26 18 20 24
35 34 32 31 31 29 29 30 30 30 31 31 31 31 30 24 23 26 29 30 32 25 24 27 19 17 19 22 20 18 17 13 12 12 14 22 24 29 24 18 17 20 27
34 32 29 27 27 28 28 27 26 26 25 24 24 22 21 19 18 21 23 28 28 29 23 20 20 21 23 23 19 14 10 11 12 19 24 26 29 21 17 18 20 25 29
31 30 28 27 24 25 25 24 23 22 22 22 21 23 21 21 21 21 27 27 24 21 21 20 19 23 22 17 12 10 11 17 22 25 29 29 20 18 18 24 28 29 32
31 27 25 26 26 25 26 26 25 22 20 19 22 21 20 20 20 19 19 20 23 22 19 21 23 23 19 17 15 15 20 25 30 32 30 24 19 18 19 25 32 35 32
30 28 29 29 28 27 27 26 24 21 20 17 18 17 19 20 21 23 23 24 23 22 22 22 20 20 21 20 18 23 32 36 34 27 23 22 19 19 21 25 27 31 36
31 30 29 28 27 25 25 24 23 22 22 22 22 21 21 22 22 23 26 26 25 23 23 22 21 21 20 21 27 36 38 34 25 24 22 20 20 22 22 24 25 28 31
34 31 29 31 29 27 27 27 26 25 23 23 23 23 23 23 23 23 25 25 24 24 25 24 22 20 24 29 37 43 40 31 29 26 22 23 24 25 25 24 24 29 31
30 32 34 33 30 28 27 26 26 25 25 25 25 24 24 24 24 25 26 27 28 29 29 28 24 25 29 36 43 44 36 32 29 27 26 26 27 27 25 24 27 29 31
37 39 36 33 32 30 29 27 26 25 26 24 25 24 25 24 25 27 29 31 32 35 35 33 30 31 34 41 44 39 35 34 33 32 31 31 32 28 26 26 27 28 28
41 37 34 32 30 29 27 25 24 22 24 25 27 27 26 28 30 31 33 38 41 43 43 40 37 38 41 43 43 39 38 38 37 37 37 37 35 29 28 28 29 28 29
38 35 32 29 26 24 23 23 21 22 25 26 29 30 31 32 34 36 39 45 49 50 49 47 45 47 47 45 46 46 45 44 44 44 43 42 37 32 30 29 30 27 28
34 32 29 25 23 21 21 21 20 21 25 29 30 31 34 36 39 41 44 49 51 52 52 52 53 52 49 46 49 50 49 50 49 48 48 46 40 36 32 30 29 28 28
30 26 23 20 18 19 21 21 22 26 30 30 32 35 40 42 39 44 48 49 50 50 54 56 56 54 52 50 51 54 56 56 55 54 53 51 46 42 36 35 30 30 28
27 23 20 18 18 20 24 24 24 27 31 33 35 39 43 45 45 49 49 51 55 56 64 65 64 60 58 58 60 60 61 62 61 61 58 55 52 47 41 39 35 33 30
19 18 18 18 19 18 20 22 24 29 32 34 36 39 42 45 49 50 52 55 59 63 72 70 72 71 68 67 68 69 69 66 63 65 64 62 58 52 48 44 39 37 31
20 19 14 11 12 15 18 21 23 27 29 30 34 37 40 44 48 50 52 58 65 69 76 79 76 75 75 74 73 73 73 70 70 71 70 69 65 59 55 50 44 41 34
11 8 10 12 16 20 23 25 28 32 33 34 36 39 40 43 46 50 53 60 66 71 76 80 82 78 80 78 76 74 71 74 73 72 73 74 70 66 62 55 51 47 39
9 11 14 16 20 22 27 30 34 37 39 40 41 41 41 46 49 51 55 62 68 73 75 82 81 80 77 79 78 75 76 76 77 76 77 78 76 72 68 62 57 52 44
9 11 16 20 24 28 33 35 38 41 43 45 45 44 46 50 53 55 57 58 61 67 70 75 80 81 79 82 84 85 83 83 80 80 80 80 78 79 73 67 61 57 48
16 21 24 27 31 35 37 41 43 44 46 48 48 47 46 48 50 52 55 59 61 61 60 64 76 83 84 83 83 85 85 84 86 90 88 82 82 81 77 70 66 61 53
25 29 33 36 39 43 45 45 48 50 51 52 53 54 53 54 55 55 56 55 56 56 59 61 68 74 80 83 84 84 85 86 84 91 90 84 80 83 80 74 69 62 58
32 36 40 44 47 50 52 52 54 56 56 56 55 56 56 55 54 54 54 56 57 58 60 63 67 70 72 77 81 80 80 78 79 80 83 84 80 78 77 74 68 66 60
42 46 49 52 54 55 56 57 59 59 59 58 58 58 58 58 58 58 58 59 60 62 63 62 66 68 67 67 73 77 77 72 73 69 73 81 81 78 78 79 72 65 60
42 46 47 48 50 51 53 54 55 56 56 57 57 57 58 58 58 58 58 59 59 61 62 63 64 65 67 65 66 68 70 66 65 65 64 72 80 80 80 78 66 64 61
Wind_Direction_500mb
223 227 230 233 234 235 239 244 244 245 247 248 250 253 254 261 255 253 257 258 264 255 252 259 269 284 286 282 282 265 272 263 252 256 255 259 268 281 291 301 308 315 321
210 213 218 221 223 229 234 242 247 249 251 253 255 253 253 255 253 255 255 249 250 261 263 263 283 280 279 268 260 262 257 256 255 244 242 247 263 285 297 300 300 313 319
196 203 212 219 224 230 235 238 243 247 249 253 251 251 252 245 249 255 253 251 245 241 269 285 265 266 259 264 261 260 260 252 244 239 249 274 287 294 293 294 307 321 324
193 197 206 218 228 236 242 245 251 254 254 251 248 242 242 243 247 243 248 251 257 262 254 228 252 262 264 262 255 242 231 238 247 267 280 285 291 291 288 307 321 327 328
194 202 208 220 228 237 243 247 250 250 247 249 237 241 236 237 244 244 251 244 227 210 234 246 262 255 249 236 222 223 246 266 276 279 281 284 273 280 309 320 326 326 333
203 211 219 227 233 237 242 243 241 239 240 238 240 237 226 233 233 235 227 228 233 233 240 242 240 236 220 212 217 254 279 287 280 273 274 254 259 289 308 318 323 332 338
214 222 230 232 233 235 237 239 241 245 250 248 244 240 238 233 234 237 244 247 245 243 240 235 224 214 218 224 257 282 292 291 280 266 252 249 268 287 302 312 318 326 330
224 229 235 241 241 242 245 246 249 247 246 245 241 239 234 237 237 240 245 246 241 234 227 220 215 217 234 266 286 293 292 284 264 252 248 259 275 285 298 307 315 322 328
230 235 240 242 238 238 239 239 239 241 242 240 237 239 240 242 242 238 241 241 235 231 222 221 221 241 267 285 294 292 285 263 254 249 256 270 279 286 295 303 312 314 321
241 244 236 230 231 231 234 236 239 244 245 242 244 246 248 243 240 240 241 241 237 232 230 227 243 259 278 292 294 286 271 260 254 257 263 269 277 281 289 298 303 310 321
235 230 223 223 223 226 227 230 235 241 249 253 256 251 251 254 254 250 249 250 246 238 235 240 256 270 287 296 294 278 267 259 256 258 264 267 270 276 285 293 297 306 315
223 216 216 220 223 227 229 233 239 242 251 258 260 262 262 263 263 261 257 253 251 247 242 247 262 276 287 294 291 273 261 255 255 259 264 265 265 269 277 284 293 303 310
207 207 211 214 220 225 235 240 241 251 259 263 268 269 270 272 270 266 260 256 252 253 249 254 267 278 286 290 287 272 259 254 251 254 256 257 259 261 269 277 285 293 300
196 200 201 204 216 226 237 246 251 259 263 265 265 272 275 272 270 270 267 262 259 259 254 261 270 278 284 289 288 273 261 256 253 254 255 256 254 256 261 267 271 282 287
186 192 197 205 218 230 241 251 259 261 263 268 273 272 270 267 267 263 263 264 263 262 259 262 268 276 282 286 286 273 263 260 256 255 255 257 255 255 257 260 263 271 275
182 193 204 213 229 241 248 255 262 267 270 271 272 273 273 273 270 269 267 267 265 264 264 265 270 275 279 283 284 275 266 261 258 257 256 255 255 256 259 262 262 268 273
191 210 221 230 239 253 262 264 263 270 274 279 279 278 279 280 277 275 275 274 271 270 269 270 270 274 278 280 282 275 269 267 264 261 258 257 256 255 256 259 260 265 271
194 206 214 230 261 271 279 286 291 293 295 298 293 290 285 281 280 279 277 273 267 266 269 272 272 275 278 279 283 279 271 268 264 263 260 257 256 255 255 256 257 260 264
180 211 250 272 283 289 293 297 299 299 300 298 294 294 293 288 285 283 280 274 274 272 275 276 278 278 278 279 283 282 273 272 269 265 261 259 257 255 255 254 253 255 257
244 265 276 287 294 297 298 300 300 299 298 298 299 300 296 291 288 286 281 279 278 278 277 279 283 285 285 283 285 285 281 274 271 265 260 257 256 256 255 253 253 254 258
289 297 302 304 303 303 302 301 301 301 302 301 301 298 296 293 292 289 288 285 283 283 283 281 285 287 287 286 287 287 285 281 272 265 261 259 257 255 254 253 253 254 255
311 309 308 307 305 303 303 303 302 299 298 299 299 299 297 294 292 289 289 288 289 288 286 284 285 287 289 289 289 289 287 283 276 270 266 258 257 255 253 251 251 251 254
307 306 305 303 299 298 296 296 296 297 298 298 299 299 298 297 296 295 293 290 288 286 285 284 283 282 283 285 286 287 287 285 283 277 271 260 254 255 253 250 250 251 253
302 301 300 298 298 297 297 297 297 297 297 298 298 299 299 299 298 296 295 293 291 288 286 285 281 280 281 283 285 285 285 285 283 278 269 262 253 252 250 249 248 252 252
300 299 297 295 294 293 293 295 295 295 296 297 297 297 298 299 299 299 298 297 297 296 295 293 290 289 285 281 280 283 284 284 281 277 268 262 255 250 246 245 247 248 249
302 302 300 299 297 297 297 296 295 295 296 297 297 298 299 300 301 301 301 301 300 297 296 295 294 293 292 290 288 285 284 282 278 276 267 258 256 251 249 247 243 246 248
Wind_Speed_850mb
54 52 51 51 48 46 43 42 42 44 48 47 47 47 49 47 45 48 45 41 39 40 39 36 38 37 32 25 25 22 23 22 19 18 25 25 20 19 26 29 27 21 23
40 37 38 35 33 34 39 37 36 37 37 39 40 42 45 44 42 44 44 39 37 37 37 37 34 22 21 23 16 20 18 18 19 19 17 18 18 24 26 26 18 20 24
35 34 32 31 31 29 29 30 30 30 31 31 31 31 30 24 23 26 29 30 32 25 24 27 19 17 19 22 20 18 17 13 12 12 14 22 24 29 24 18 17 20 27
34 32 29 27 27 28 28 27 26 26 25 24 24 22 21 19 18 21 23 28 28 29 23 20 20 21 23 23 19 14 10 11 12 19 24 26 29 21 17 18 20 25 29
31 30 28 27 24 25 25 24 23 22 22 22 21 23 21 21 21 21 27 27 24 21 21 20 19 23 22 17 12 10 11 17 22 25 29 29 20 18 18 24 28 29 32
31 27 25 26 26 25 26 26 25 22 20 19 22 21 20 20 20 19 19 20 23 22 19 21 23 23 19 17 15 15 20 25 30 32 30 24 19 18 19 25 32 35 32
30 28 29 29 28 27 27 26 24 21 20 17 18 17 19 20 21 23 23 24 23 22 22 22 20 20 21 20 18 23 32 36 34 27 23 22 19 19 21 25 27 31 36
31 30 29 28 27 25 25 24 23 22 22 22 22 21 21 22 22 23 26 26 25 23 23 22 21 21 20 21 27 36 38 34 25 24 22 20 20 22 22 24 25 28 31
34 31 29 31 29 27 27 27 26 25 23 23 23 23 23 23 23 23 25 25 24 24 25 24 22 20 24 29 37 43 40 31 29 26 22 23 24 25 25 24 24 29 31
30 32 34 33 30 28 27 26 26 25 25 25 25 24 24 24 24 25 26 27 28 29 29 28 24 25 29 36 43 44 36 32 29 27 26 26 27 27 25 24 27 29 31
37 39 36 33 32 30 29 27 26 25 26 24 25 24 25 24 25 27 29 31 32 35 35 33 30 31 34 41 44 39 35 34 33 32 31 31 32 28 26 26 27 28 28
41 37 34 32 30 29 27 25 24 22 24 25 27 27 26 28 30 31 33 38 41 43 43 40 37 38 41 43 43 39 38 38 37 37 37 37 35 29 28 28 29 28 29
38 35 32 29 26 24 23 23 21 22 25 26 29 30 31 32 34 36 39 45 49 50 49 47 45 47 47 45 46 46 45 44 44 44 43 42 37 32 30 29 30 27 28
34 32 29 25 23 21 21 21 20 21 25 29 30 31 34 36 39 41 44 49 51 52 52 52 53 52 49 46 49 50 49 50 49 48 48 46 40 36 32 30 29 28 28
30 26 23 20 18 19 21 21 22 26 30 30 32 35 40 42 39 44 48 49 50 50 54 56 56 54 52 50 51 54 56 56 55 54 53 51 46 42 36 35 30 30 28
27 23 20 18 18 20 24 24 24 27 31 33 35 39 43 45 45 49 49 51 55 56 64 65 64 60 58 58 60 60 61 62 61 61 58 55 52 47 41 39 35 33 30
19 18 18 18 19 18 20 22 24 29 32 34 36 39 42 45 49 50 52 55 59 63 72 70 72 71 68 67 68 69 69 66 63 65 64 62 58 52 48 44 39 37 31
20 19 14 11 12 15 18 21 23 27 29 30 34 37 40 44 48 50 52 58 65 69 76 79 76 75 75 74 73 73 73 70 70 71 70 69 65 59 55 50 44 41 34
11 8 10 12 16 20 23 25 28 32 33 34 36 39 40 43 46 50 53 60 66 71 76 80 82 78 80 78 76 74 71 74 73 72 73 74 70 66 62 55 51 47 39
9 11 14 16 20 22 27 30 34 37 39 40 41 41 41 46 49 51 55 62 68 73 75 82 81 80 77 79 78 75 76 76 77 76 77 78 76 72 68 62 57 52 44
9 11 16 20 24 28 33 35 38 41 43 45 45 44 46 50 53 55 57 58 61 67 70 75 80 81 79 82 84 85 83 83 80 80 80 80 78 79 73 67 61 57 48
16 21 24 27 31 35 37 41 43 44 46 48 48 47 46 48 50 52 55 59 61 61 60 64 76 83 84 83 83 85 85 84 86 90 88 82 82 81 77 70 66 61 53
25 29 33 36 39 43 45 45 48 50 51 52 53 54 53 54 55 55 56 55 56 56 59 61 68 74 80 83 84 84 85 86 84 91 90 84 80 83 80 74 69 62 58
32 36 40 44 47 50 52 52 54 56 56 56 55 56 56 55 54 54 54 56 57 58 60 63 67 70 72 77 81 80 80 78 79 80 83 84 80 78 77 74 68 66 60
42 46 49 52 54 55 56 57 59 59 59 58 58 58 58 58 58 58 58 59 60 62 63 62 66 68 67 67 73 77 77 72 73 69 73 81 81 78 78 79 72 65 60
42 46 47 48 50 51 53 54 55 56 56 57 57 57 58 58 58 58 58 59 59 61 62 63 64 65 67 65 66 68 70 66 65 65 64 72 80 80 80 78 66 64 61
Wind_Direction_850mb
223 227 230 233 234 235 239 244 244 245 247 248 250 253 254 261 255 253 257 258 264 255 252 259 269 284 286 282 282 265 272 263 252 256 255 259 268 281 291 301 308 315 321
210 213 218 221 223 229 234 242 247 249 251 253 255 253 253 255 253 255 255 249 250 261 263 263 283 280 279 268 260 262 257 256 255 244 242 247 263 285 297 300 300 313 319
196 203 212 219 224 230 235 238 243 247 249 253 251 251 252 245 249 255 253 251 245 241 269 285 265 266 259 264 261 260 260 252 244 239 249 274 287 294 293 294 307 321 324
193 197 206 218 228 236 242 245 251 254 254 251 248 242 242 243 247 243 248 251 257 262 254 228 252 262 264 262 255 242 231 238 247 267 280 285 291 291 288 307 321 327 328
194 202 208 220 228 237 243 247 250 250 247 249 237 241 236 237 244 244 251 244 227 210 234 246 262 255 249 236 222 223 246 266 276 279 281 284 273 280 309 320 326 326 333
203 211 219 227 233 237 242 243 241 239 240 238 240 237 226 233 233 235 227 228 233 233 240 242 240 236 220 212 217 254 279 287 280 273 274 254 259 289 308 318 323 332 338
214 222 230 232 233 235 237 239 241 245 250 248 244 240 238 233 234 237 244 247 245 243 240 235 224 214 218 224 257 282 292 291 280 266 252 249 268 287 302 312 318 326 330
224 229 235 241 241 242 245 246 249 247 246 245 241 239 234 237 237 240 245 246 241 234 227 220 215 217 234 266 286 293 292 284 264 252 248 259 275 285 298 307 315 322 328
230 235 240 242 238 238 239 239 239 241 242 240 237 239 240 242 242 238 241 241 235 231 222 221 221 241 267 285 294 292 285 263 254 249 256 270 279 286 295 303 312 314 321
241 244 236 230 231 231 234 236 239 244 245 242 244 246 248 243 240 240 241 241 237 232 230 227 243 259 278 292 294 286 271 260 254 257 263 269 277 281 289 298 303 310 321
235 230 223 223 223 226 227 230 235 241 249 253 256 251 251 254 254 250 249 250 246 238 235 240 256 270 287 296 294 278 267 259 256 258 264 267 270 276 285 293 297 306 315
223 216 216 220 223 227 229 233 239 242 251 258 260 262 262 263 263 261 257 253 251 247 242 247 262 276 287 294 291 273 261 255 255 259 264 265 265 269 277 284 293 303 310
207 207 211 214 220 225 235 240 241 251 259 263 268 269 270 272 270 266 260 256 252 253 249 254 267 278 286 290 287 272 259 254 251 254 256 257 259 261 269 277 285 293 300
196 200 201 204 216 226 237 246 251 259 263 265 265 272 275 272 270 270 267 262 259 259 254 261 270 278 284 289 288 273 261 256 253 254 255 256 254 256 261 267 271 282 287
186 192 197 205 218 230 241 251 259 261 263 268 273 272 270 267 267 263 263 264 263 262 259 262 268 276 282 286 286 273 263 260 256 255 255 257 255 255 257 260 263 271 275
182 193 204 213 229 241 248 255 262 267 270 271 272 273 273 273 270 269 267 267 265 264 264 265 270 275 279 283 284 275 266 261 258 257 256 255 255 256 259 262 262 268 273
191 210 221 230 239 253 262 264 263 270 274 279 279 278 279 280 277 275 275 274 271 270 269 270 270 274 278 280 282 275 269 267 264 261 258 257 256 255 256 259 260 265 271
194 206 214 230 261 271 279 286 291 293 295 298 293 290 285 281 280 279 277 273 267 266 269 272 272 275 278 279 283 279 271 268 264 263 260 257 256 255 255 256 257 260 264
180 211 250 272 283 289 293 297 299 299 300 298 294 294 293 288 285 283 280 274 274 272 275 276 278 278 278 279 283 282 273 272 269 265 261 259 257 255 255 254 253 255 257
244 265 276 287 294 297 298 300 300 299 298 298 299 300 296 291 288 286 281 279 278 278 277 279 283 285 285 283 285 285 281 274 271 265 260 257 256 256 255 253 253 254 258
289 297 302 304 303 303 302 301 301 301 302 301 301 298 296 293 292 289 288 285 283 283 283 281 285 287 287 286 287 287 285 281 272 265 261 259 257 255 254 253 253 254 255
311 309 308 307 305 303 303 303 302 299 298 299 299 299 297 294 292 289 289 288 289 288 286 284 285 287 289 289 289 289 287 283 276 270 266 258 257 255 253 251 251 251 254
307 306 305 303 299 298 296 296 296 297 298 298 299 299 298 297 296 295 293 290 288 286 285 284 283 282 283 285 286 287 287 285 283 277 271 260 254 255 253 250 250 251 253
302 301 300 298 298 297 297 297 297 297 297 298 298 299 299 299 298 296 295 293 291 288 286 285 281 280 281 283 285 285 285 285 283 278 269 262 253 252 250 249 248 252 252
300 299 297 295 294 293 293 295 295 295 296 297 297 297 298 299 299 299 298 297 297 296 295 293 290 289 285 281 280 283 284 284 281 277 268 262 255 250 246 245 247 248 249
302 302 300 299 297 297 297 296 295 295 296 297 297 298 299 300 301 301 301 301 300 297 296 295 294 293 292 290 288 285 284 282 278 276 267 258 256 251 249 247 243 246 248